Tracking 19562 objects as of 24-Mar-2019
HD Live streaming from Space Station
objects crossing your sky now

WESTFORD NEEDLES

Track WESTFORD NEEDLES now!
10-day predictions
WESTFORD NEEDLES is classified as:


NORAD ID: 19946
Int'l Code: 1963-014EU
Perigee: 1,924.5 km
Apogee: 5,257.8 km
Inclination: 86.5 °
Period: 164.9 minutes
Semi major axis: 9962 km
RCS: 0.1748 m2 (medium)
Launch date: May 9, 1963
Source: United States (US)
Launch site: AIR FORCE WESTERN TEST RANGE (AFWTR)
aabbcc
Your satellite tracking list
Your tracking list is empty




NASA's NSSDC Master Catalog

Two Line Element Set (TLE):
1 19946U 63014EU  19081.98519432 -.00000033  00000-0 -44122-2 0  9996
2 19946  86.4892 257.0121 1672966 128.5322 354.6624  8.73114281959149
Source of the keplerian elements: AFSPC